Time,TemperatureF,DewpointF,PressureIn,WindDirection,WindDirectionDegrees,WindSpeedMPH,WindSpeedGustMPH,Humidity,HourlyPrecipIn,Conditions,Clouds,dailyrainin,SoftwareType,DateUTC
2013-03-30 00:00:00,58.2,46.0,30.30,East,88,0.0,4.8,64,0.00,,,0.00,WUHU216PEETBRO,2013-03-30 04:00:00,
2013-03-30 00:05:00,58.2,46.2,30.30,East,88,0.0,3.4,64,0.00,,,0.00,WUHU216PEETBRO,2013-03-30 04:05:00,
2013-03-30 00:10:00,58.1,46.3,30.30,East,88,0.0,3.1,64,0.00,,,0.00,WUHU216PEETBRO,2013-03-30 04:10:00,
2013-03-30 00:15:00,58.0,46.5,30.30,East,88,0.0,0.0,65,0.00,,,0.00,WUHU216PEETBRO,2013-03-30 04:15:00,
2013-03-30 00:20:00,58.0,46.6,30.29,East,88,0.0,0.0,65,0.00,,,0.00,WUHU216PEETBRO,2013-03-30 04:20:00,
2013-03-30 00:25:00,58.1,46.9,30.30,East,88,0.0,0.0,66,0.00,,,0.00,WUHU216PEETBRO,2013-03-30 04:25:00,
2013-03-30 00:30:00,58.1,46.9,30.30,East,88,0.0,0.0,66,0.00,,,0.00,WUHU216PEETBRO,2013-03-30 04:30:00,
2013-03-30 00:35:00,58.0,47.0,30.30,East,88,0.0,0.0,66,0.00,,,0.00,WUHU216PEETBRO,2013-03-30 04:35:00,
2013-03-30 00:40:00,57.9,47.1,30.30,East,88,0.0,0.0,67,0.00,,,0.00,WUHU216PEETBRO,2013-03-30 04:40:00,
2013-03-30 00:45:00,57.8,47.2,30.30,East,88,0.0,0.0,67,0.00,,,0.00,WUHU216PEETBRO,2013-03-30 04:45:00,
2013-03-30 00:50:00,57.7,47.0,30.30,East,88,0.0,0.0,67,0.00,,,0.00,WUHU216PEETBRO,2013-03-30 04:50:00,
2013-03-30 00:55:00,57.4,46.9,30.29,East,88,0.0,0.0,68,0.00,,,0.00,WUHU216PEETBRO,2013-03-30 04:55:00,
2013-03-30 01:00:00,57.1,47.0,30.29,East,88,0.0,0.0,69,0.00,,,0.00,WUHU216PEETBRO,2013-03-30 05:00:00,
2013-03-30 01:05:00,56.8,47.2,30.29,East,88,0.0,0.0,70,0.00,,,0.00,WUHU216PEETBRO,2013-03-30 05:05:00,
2013-03-30 01:10:00,56.6,47.3,30.30,East,88,0.0,0.0,71,0.00,,,0.00,WUHU216PEETBRO,2013-03-30 05:10:00,
2013-03-30 01:15:00,56.2,47.5,30.29,East,88,0.0,0.0,72,0.00,,,0.00,WUHU216PEETBRO,2013-03-30 05:15:00,
2013-03-30 01:20:00,56.0,47.6,30.30,East,88,0.0,0.0,73,0.00,,,0.00,WUHU216PEETBRO,2013-03-30 05:20:00,
2013-03-30 01:25:00,55.7,48.4,30.30,East,88,0.0,0.0,76,0.00,,,0.00,WUHU216PEETBRO,2013-03-30 05:25:00,
2013-03-30 01:30:00,55.5,48.7,30.30,East,88,0.0,0.0,78,0.00,,,0.00,WUHU216PEETBRO,2013-03-30 05:30:00,
2013-03-30 01:35:00,55.2,49.6,30.30,East,88,0.0,0.0,81,0.00,,,0.00,WUHU216PEETBRO,2013-03-30 05:35:00,
2013-03-30 01:40:00,54.9,49.1,30.29,East,88,0.0,0.0,81,0.00,,,0.00,WUHU216PEETBRO,2013-03-30 05:40:00,
2013-03-30 01:45:00,54.7,48.8,30.30,East,88,0.0,0.0,80,0.00,,,0.00,WUHU216PEETBRO,2013-03-30 05:45:00,
2013-03-30 01:50:00,54.6,49.0,30.30,East,88,0.0,0.0,81,0.00,,,0.00,WUHU216PEETBRO,2013-03-30 05:50:00,
2013-03-30 01:55:00,54.5,48.9,30.30,East,88,0.0,0.0,81,0.00,,,0.00,WUHU216PEETBRO,2013-03-30 05:55:00,
2013-03-30 02:00:00,54.4,49.2,30.30,East,88,0.0,0.0,83,0.00,,,0.00,WUHU216PEETBRO,2013-03-30 06:00:00,
2013-03-30 02:05:00,54.4,49.3,30.30,East,88,0.0,0.0,83,0.00,,,0.00,WUHU216PEETBRO,2013-03-30 06:05:00,
2013-03-30 02:10:00,54.2,49.1,30.30,East,88,0.0,0.0,83,0.00,,,0.00,WUHU216PEETBRO,2013-03-30 06:10:00,
2013-03-30 02:15:00,54.2,49.3,30.30,East,88,0.0,0.0,84,0.00,,,0.00,WUHU216PEETBRO,2013-03-30 06:15:00,
2013-03-30 02:20:00,54.1,49.3,30.30,East,88,0.0,0.0,84,0.00,,,0.00,WUHU216PEETBRO,2013-03-30 06:20:00,
2013-03-30 02:25:00,54.0,49.2,30.30,East,88,0.0,0.0,84,0.00,,,0.00,WUHU216PEETBRO,2013-03-30 06:25:00,
2013-03-30 02:30:00,53.9,49.2,30.30,East,88,0.0,0.0,84,0.00,,,0.00,WUHU216PEETBRO,2013-03-30 06:30:00,
2013-03-30 02:35:00,53.9,49.4,30.29,East,88,0.0,0.0,85,0.00,,,0.00,WUHU216PEETBRO,2013-03-30 06:35:00,
2013-03-30 02:40:00,53.8,49.2,30.29,East,88,0.0,0.0,84,0.00,,,0.00,WUHU216PEETBRO,2013-03-30 06:40:00,
2013-03-30 02:45:00,53.7,49.2,30.29,East,88,0.0,0.0,85,0.00,,,0.00,WUHU216PEETBRO,2013-03-30 06:45:00,
2013-03-30 02:50:00,53.7,49.2,30.29,East,88,0.0,0.0,85,0.00,,,0.00,WUHU216PEETBRO,2013-03-30 06:50:00,
2013-03-30 02:55:00,53.6,49.1,30.29,East,88,0.0,0.0,85,0.00,,,0.00,WUHU216PEETBRO,2013-03-30 06:55:00,
2013-03-30 03:00:00,53.5,48.9,30.29,East,88,0.0,0.0,84,0.00,,,0.00,WUHU216PEETBRO,2013-03-30 07:00:00,
2013-03-30 03:05:00,53.5,49.0,30.29,East,88,0.0,0.0,85,0.00,,,0.00,WUHU216PEETBRO,2013-03-30 07:05:00,
2013-03-30 03:10:00,53.4,48.9,30.29,East,88,0.0,0.0,85,0.00,,,0.00,WUHU216PEETBRO,2013-03-30 07:10:00,
2013-03-30 03:15:00,53.4,48.9,30.29,East,88,0.0,0.0,85,0.00,,,0.00,WUHU216PEETBRO,2013-03-30 07:15:00,
2013-03-30 03:20:00,53.4,49.0,30.29,East,88,0.0,0.0,85,0.00,,,0.00,WUHU216PEETBRO,2013-03-30 07:20:00,
2013-03-30 03:25:00,53.4,49.0,30.28,East,88,0.0,0.0,85,0.00,,,0.00,WUHU216PEETBRO,2013-03-30 07:25:00,
2013-03-30 03:30:00,53.4,49.0,30.28,East,88,0.0,0.0,85,0.00,,,0.00,WUHU216PEETBRO,2013-03-30 07:30:00,
2013-03-30 03:35:00,53.3,48.9,30.28,East,88,0.0,0.0,85,0.00,,,0.00,WUHU216PEETBRO,2013-03-30 07:35:00,
2013-03-30 03:40:00,53.2,48.8,30.28,East,88,0.0,0.0,85,0.00,,,0.00,WUHU216PEETBRO,2013-03-30 07:40:00,
2013-03-30 03:45:00,53.1,48.8,30.28,East,88,0.0,0.0,85,0.00,,,0.00,WUHU216PEETBRO,2013-03-30 07:45:00,
2013-03-30 03:50:00,53.2,49.1,30.28,East,88,0.0,0.0,86,0.00,,,0.00,WUHU216PEETBRO,2013-03-30 07:50:00,
2013-03-30 03:55:00,53.1,49.0,30.28,East,88,0.0,0.0,86,0.00,,,0.00,WUHU216PEETBRO,2013-03-30 07:55:00,
2013-03-30 04:00:00,53.0,49.0,30.28,East,88,0.0,0.0,86,0.00,,,0.00,WUHU216PEETBRO,2013-03-30 08:00:00,
2013-03-30 04:05:00,53.0,49.1,30.28,East,88,0.0,0.0,87,0.00,,,0.00,WUHU216PEETBRO,2013-03-30 08:05:00,
2013-03-30 04:10:00,52.9,49.1,30.28,East,88,0.0,0.0,87,0.00,,,0.00,WUHU216PEETBRO,2013-03-30 08:10:00,
2013-03-30 04:15:00,52.9,49.1,30.28,East,88,0.0,0.0,87,0.00,,,0.00,WUHU216PEETBRO,2013-03-30 08:15:00,
2013-03-30 04:20:00,52.7,49.0,30.28,East,88,0.0,0.0,87,0.00,,,0.00,WUHU216PEETBRO,2013-03-30 08:20:00,
2013-03-30 04:25:00,52.4,48.8,30.28,East,88,0.0,0.0,88,0.00,,,0.00,WUHU216PEETBRO,2013-03-30 08:25:00,
2013-03-30 04:30:00,52.3,49.0,30.28,East,88,0.0,0.0,89,0.00,,,0.00,WUHU216PEETBRO,2013-03-30 08:30:00,
2013-03-30 04:35:00,52.5,49.4,30.28,East,88,0.0,0.0,89,0.00,,,0.00,WUHU216PEETBRO,2013-03-30 08:35:00,
2013-03-30 04:40:00,52.6,49.7,30.28,East,88,0.0,0.0,90,0.00,,,0.00,WUHU216PEETBRO,2013-03-30 08:40:00,
2013-03-30 04:45:00,52.4,49.4,30.28,East,88,0.0,0.0,90,0.00,,,0.00,WUHU216PEETBRO,2013-03-30 08:45:00,
2013-03-30 04:50:00,52.3,49.4,30.28,East,88,0.0,0.0,90,0.00,,,0.00,WUHU216PEETBRO,2013-03-30 08:50:00,
2013-03-30 04:55:00,52.0,49.1,30.27,East,88,0.0,0.0,90,0.00,,,0.00,WUHU216PEETBRO,2013-03-30 08:55:00,
2013-03-30 05:00:00,51.8,49.1,30.27,East,88,0.0,0.0,91,0.00,,,0.00,WUHU216PEETBRO,2013-03-30 09:00:00,
2013-03-30 05:05:00,52.0,49.4,30.27,East,88,0.0,0.0,91,0.00,,,0.00,WUHU216PEETBRO,2013-03-30 09:05:00,
2013-03-30 05:10:00,52.0,49.4,30.27,East,88,0.0,0.0,91,0.00,,,0.00,WUHU216PEETBRO,2013-03-30 09:10:00,
2013-03-30 05:15:00,51.8,49.2,30.27,East,88,0.0,0.0,91,0.00,,,0.00,WUHU216PEETBRO,2013-03-30 09:15:00,
2013-03-30 05:20:00,51.6,49.0,30.27,East,88,0.0,0.0,91,0.00,,,0.00,WUHU216PEETBRO,2013-03-30 09:20:00,
2013-03-30 05:25:00,51.4,48.9,30.27,East,88,0.0,0.0,91,0.00,,,0.00,WUHU216PEETBRO,2013-03-30 09:25:00,
2013-03-30 05:30:00,51.3,48.9,30.27,East,88,0.0,0.0,92,0.00,,,0.00,WUHU216PEETBRO,2013-03-30 09:30:00,
2013-03-30 05:34:00,51.3,48.9,30.27,East,88,0.0,0.0,92,0.00,,,0.00,WUHU216PEETBRO,2013-03-30 09:34:00,
2013-03-30 05:39:00,51.3,49.0,30.27,East,88,0.0,0.0,92,0.00,,,0.00,WUHU216PEETBRO,2013-03-30 09:39:00,
2013-03-30 05:44:00,51.1,48.8,30.27,East,88,0.0,0.0,92,0.00,,,0.00,WUHU216PEETBRO,2013-03-30 09:44:00,
2013-03-30 05:49:00,51.0,48.7,30.27,East,88,0.0,0.0,92,0.00,,,0.00,WUHU216PEETBRO,2013-03-30 09:49:00,
2013-03-30 05:54:00,50.9,48.8,30.27,East,88,0.0,0.0,93,0.00,,,0.00,WUHU216PEETBRO,2013-03-30 09:54:00,
2013-03-30 05:59:00,51.1,49.0,30.26,East,88,0.0,0.0,93,0.00,,,0.00,WUHU216PEETBRO,2013-03-30 09:59:00,
2013-03-30 06:04:00,51.1,49.0,30.26,East,88,0.0,0.0,93,0.00,,,0.00,WUHU216PEETBRO,2013-03-30 10:04:00,
2013-03-30 06:09:00,51.3,49.2,30.26,East,88,0.0,0.0,93,0.00,,,0.00,WUHU216PEETBRO,2013-03-30 10:09:00,
2013-03-30 06:14:00,51.4,49.3,30.26,East,88,0.0,0.0,93,0.00,,,0.00,WUHU216PEETBRO,2013-03-30 10:14:00,
2013-03-30 06:19:00,51.5,49.4,30.26,East,88,0.0,0.0,93,0.00,,,0.00,WUHU216PEETBRO,2013-03-30 10:19:00,
2013-03-30 06:24:00,51.5,49.4,30.26,East,88,0.0,0.0,93,0.00,,,0.00,WUHU216PEETBRO,2013-03-30 10:24:00,
2013-03-30 06:29:00,51.4,49.2,30.26,East,88,0.0,0.0,92,0.00,,,0.00,WUHU216PEETBRO,2013-03-30 10:29:00,
2013-03-30 06:34:00,51.2,49.0,30.26,East,88,0.0,0.0,92,0.00,,,0.00,WUHU216PEETBRO,2013-03-30 10:34:00,
2013-03-30 06:39:00,51.0,48.8,30.26,East,88,0.0,0.0,92,0.00,,,0.00,WUHU216PEETBRO,2013-03-30 10:39:00,
2013-03-30 06:44:00,50.7,48.5,30.26,East,88,0.0,0.0,92,0.00,,,0.00,WUHU216PEETBRO,2013-03-30 10:44:00,
2013-03-30 06:49:00,50.5,48.3,30.26,East,88,0.0,0.0,92,0.00,,,0.00,WUHU216PEETBRO,2013-03-30 10:49:00,
2013-03-30 06:54:00,50.3,48.1,30.26,East,88,0.0,0.0,92,0.00,,,0.00,WUHU216PEETBRO,2013-03-30 10:54:00,
2013-03-30 06:59:00,50.0,47.9,30.27,East,88,0.0,0.0,93,0.00,,,0.00,WUHU216PEETBRO,2013-03-30 10:59:00,
2013-03-30 07:04:00,49.9,47.8,30.27,East,88,0.0,0.0,93,0.00,,,0.00,WUHU216PEETBRO,2013-03-30 11:04:00,
2013-03-30 07:09:00,49.8,47.8,30.27,East,88,0.0,0.0,93,0.00,,,0.00,WUHU216PEETBRO,2013-03-30 11:09:00,
2013-03-30 07:14:00,49.7,47.7,30.27,East,88,0.0,0.0,93,0.00,,,0.00,WUHU216PEETBRO,2013-03-30 11:14:00,
2013-03-30 07:19:00,50.0,48.3,30.28,East,88,0.0,0.0,94,0.00,,,0.00,WUHU216PEETBRO,2013-03-30 11:19:00,
2013-03-30 07:24:00,50.3,48.6,30.28,East,88,0.0,0.0,94,0.00,,,0.00,WUHU216PEETBRO,2013-03-30 11:24:00,
2013-03-30 07:29:00,50.4,48.6,30.28,East,88,0.0,0.0,94,0.00,,,0.00,WUHU216PEETBRO,2013-03-30 11:29:00,
2013-03-30 07:34:00,50.3,48.5,30.29,East,88,0.0,0.0,94,0.00,,,0.00,WUHU216PEETBRO,2013-03-30 11:34:00,
2013-03-30 07:39:00,50.2,48.4,30.29,East,88,0.0,0.0,94,0.00,,,0.00,WUHU216PEETBRO,2013-03-30 11:39:00,
2013-03-30 07:44:00,50.1,48.4,30.29,East,88,0.0,0.0,94,0.00,,,0.00,WUHU216PEETBRO,2013-03-30 11:44:00,
2013-03-30 07:49:00,50.4,48.8,30.29,East,88,0.0,0.0,94,0.00,,,0.00,WUHU216PEETBRO,2013-03-30 11:49:00,
2013-03-30 07:54:00,50.7,49.1,30.29,East,88,0.0,0.0,94,0.00,,,0.00,WUHU216PEETBRO,2013-03-30 11:54:00,
2013-03-30 07:59:00,50.9,49.2,30.29,East,88,0.0,0.0,94,0.00,,,0.00,WUHU216PEETBRO,2013-03-30 11:59:00,
2013-03-30 08:04:00,51.1,49.4,30.30,East,88,0.0,0.0,94,0.00,,,0.00,WUHU216PEETBRO,2013-03-30 12:04:00,
2013-03-30 08:09:00,51.4,49.7,30.30,East,88,0.0,0.0,94,0.00,,,0.00,WUHU216PEETBRO,2013-03-30 12:09:00,
2013-03-30 08:14:00,51.9,50.2,30.30,East,88,0.0,0.0,94,0.00,,,0.00,WUHU216PEETBRO,2013-03-30 12:14:00,
2013-03-30 08:19:00,52.8,51.2,30.30,East,88,0.0,0.0,94,0.00,,,0.00,WUHU216PEETBRO,2013-03-30 12:19:00,
2013-03-30 08:24:00,53.3,51.4,30.30,East,88,0.0,0.0,94,0.00,,,0.00,WUHU216PEETBRO,2013-03-30 12:24:00,
2013-03-30 08:29:00,54.5,52.6,30.30,East,88,0.0,0.0,93,0.00,,,0.00,WUHU216PEETBRO,2013-03-30 12:29:00,
2013-03-30 08:34:00,55.6,53.5,30.30,East,88,0.0,0.0,93,0.00,,,0.00,WUHU216PEETBRO,2013-03-30 12:34:00,
2013-03-30 08:39:00,56.2,53.6,30.30,East,88,0.0,0.0,91,0.00,,,0.00,WUHU216PEETBRO,2013-03-30 12:39:00,
2013-03-30 08:44:00,57.0,54.3,30.31,East,88,0.0,0.0,91,0.00,,,0.00,WUHU216PEETBRO,2013-03-30 12:44:00,
2013-03-30 08:49:00,58.4,55.4,30.31,East,88,0.0,0.0,90,0.00,,,0.00,WUHU216PEETBRO,2013-03-30 12:49:00,
2013-03-30 08:54:00,59.7,55.3,30.30,East,88,0.0,0.0,85,0.00,,,0.00,WUHU216PEETBRO,2013-03-30 12:54:00,
2013-03-30 08:59:00,60.9,55.2,30.30,East,88,0.0,0.0,81,0.00,,,0.00,WUHU216PEETBRO,2013-03-30 12:59:00,
2013-03-30 09:04:00,61.7,54.5,30.30,East,88,0.0,0.0,77,0.00,,,0.00,WUHU216PEETBRO,2013-03-30 13:04:00,
2013-03-30 09:09:00,62.0,52.3,30.30,East,88,0.0,0.0,70,0.00,,,0.00,WUHU216PEETBRO,2013-03-30 13:09:00,
2013-03-30 09:14:00,62.4,52.5,30.30,North,2,0.0,4.2,70,0.00,,,0.00,WUHU216PEETBRO,2013-03-30 13:14:00,
2013-03-30 09:19:00,63.1,52.7,30.30,North,2,0.0,4.2,68,0.00,,,0.00,WUHU216PEETBRO,2013-03-30 13:19:00,
2013-03-30 09:24:00,63.8,52.5,30.31,North,2,0.0,0.0,66,0.00,,,0.00,WUHU216PEETBRO,2013-03-30 13:24:00,
2013-03-30 09:29:00,64.8,52.7,30.31,North,2,0.0,0.0,64,0.00,,,0.00,WUHU216PEETBRO,2013-03-30 13:29:00,
2013-03-30 09:34:00,65.4,52.2,30.31,SE,132,2.5,2.5,62,0.00,,,0.00,WUHU216PEETBRO,2013-03-30 13:34:00,
2013-03-30 09:39:00,66.1,52.4,30.31,ESE,118,0.0,3.0,61,0.00,,,0.00,WUHU216PEETBRO,2013-03-30 13:39:00,
2013-03-30 09:44:00,66.3,52.0,30.31,ESE,118,0.0,0.0,60,0.00,,,0.00,WUHU216PEETBRO,2013-03-30 13:44:00,
2013-03-30 09:49:00,66.7,52.4,30.31,ESE,118,0.0,0.0,60,0.00,,,0.00,WUHU216PEETBRO,2013-03-30 13:49:00,
2013-03-30 09:54:00,66.9,51.9,30.31,SW,224,0.0,5.8,58,0.00,,,0.00,WUHU216PEETBRO,2013-03-30 13:54:00,
2013-03-30 09:59:00,67.2,51.3,30.31,SE,131,4.7,7.0,57,0.00,,,0.00,WUHU216PEETBRO,2013-03-30 13:59:00,
2013-03-30 10:04:00,66.9,51.2,30.31,East,83,4.7,8.1,57,0.00,,,0.00,WUHU216PEETBRO,2013-03-30 14:04:00,
2013-03-30 10:09:00,67.0,51.4,30.31,NE,43,4.3,8.7,57,0.00,,,0.00,WUHU216PEETBRO,2013-03-30 14:09:00,
2013-03-30 10:14:00,67.2,51.0,30.31,SSE,165,6.2,8.7,56,0.00,,,0.00,WUHU216PEETBRO,2013-03-30 14:14:00,
2013-03-30 10:19:00,67.3,51.0,30.31,ESE,119,5.7,10.7,56,0.00,,,0.00,WUHU216PEETBRO,2013-03-30 14:19:00,
2013-03-30 10:24:00,67.2,51.0,30.31,NNE,29,0.0,10.7,56,0.00,,,0.00,WUHU216PEETBRO,2013-03-30 14:24:00,
2013-03-30 10:29:00,68.0,50.7,30.31,SSE,155,6.4,9.7,54,0.00,,,0.00,WUHU216PEETBRO,2013-03-30 14:29:00,
2013-03-30 10:34:00,68.1,50.7,30.31,SW,220,5.0,9.7,54,0.00,,,0.00,WUHU216PEETBRO,2013-03-30 14:34:00,
2013-03-30 10:39:00,68.5,50.9,30.31,SE,135,3.3,9.1,53,0.00,,,0.00,WUHU216PEETBRO,2013-03-30 14:39:00,
2013-03-30 10:44:00,69.1,51.1,30.31,South,169,4.5,9.1,53,0.00,,,0.00,WUHU216PEETBRO,2013-03-30 14:44:00,
2013-03-30 10:49:00,69.4,50.6,30.30,South,189,8.2,10.3,51,0.00,,,0.00,WUHU216PEETBRO,2013-03-30 14:49:00,
2013-03-30 10:54:00,69.3,50.7,30.30,South,173,6.0,10.3,52,0.00,,,0.00,WUHU216PEETBRO,2013-03-30 14:54:00,
2013-03-30 10:59:00,69.8,50.6,30.30,ESE,112,5.7,9.9,50,0.00,,,0.00,WUHU216PEETBRO,2013-03-30 14:59:00,
2013-03-30 11:04:00,69.6,49.5,30.30,SSE,166,5.2,14.9,49,0.00,,,0.00,WUHU216PEETBRO,2013-03-30 15:04:00,
2013-03-30 11:09:00,69.5,50.1,30.30,SSW,196,6.4,14.9,50,0.00,,,0.00,WUHU216PEETBRO,2013-03-30 15:09:00,
2013-03-30 11:14:00,69.6,48.6,30.30,East,91,10.4,11.2,47,0.00,,,0.00,WUHU216PEETBRO,2013-03-30 15:14:00,
2013-03-30 11:19:00,69.5,49.3,30.29,SE,131,6.8,11.2,49,0.00,,,0.00,WUHU216PEETBRO,2013-03-30 15:19:00,
2013-03-30 11:24:00,69.9,49.0,30.29,SE,129,4.7,10.8,48,0.00,,,0.00,WUHU216PEETBRO,2013-03-30 15:24:00,
2013-03-30 11:29:00,70.5,48.6,30.29,South,172,5.7,8.4,46,0.00,,,0.00,WUHU216PEETBRO,2013-03-30 15:29:00,
2013-03-30 11:34:00,70.7,46.8,30.29,SSE,153,5.3,11.2,43,0.00,,,0.00,WUHU216PEETBRO,2013-03-30 15:34:00,
2013-03-30 11:39:00,71.3,48.4,30.29,ESE,112,5.7,11.2,44,0.00,,,0.00,WUHU216PEETBRO,2013-03-30 15:39:00,
2013-03-30 11:44:00,71.6,48.0,30.29,SSW,194,6.2,8.7,43,0.00,,,0.00,WUHU216PEETBRO,2013-03-30 15:44:00,
2013-03-30 11:49:00,71.8,47.7,30.29,SE,132,7.1,9.4,43,0.00,,,0.00,WUHU216PEETBRO,2013-03-30 15:49:00,
2013-03-30 11:54:00,72.0,48.6,30.29,South,170,8.3,10.1,44,0.00,,,0.00,WUHU216PEETBRO,2013-03-30 15:54:00,
2013-03-30 11:59:00,72.0,48.2,30.29,SSW,199,0.0,10.1,43,0.00,,,0.00,WUHU216PEETBRO,2013-03-30 15:59:00,
2013-03-30 12:04:00,72.0,46.0,30.29,South,175,10.3,11.2,40,0.00,,,0.00,WUHU216PEETBRO,2013-03-30 16:04:00,
2013-03-30 12:09:00,72.0,47.3,30.29,SE,127,1.8,12.9,42,0.00,,,0.00,WUHU216PEETBRO,2013-03-30 16:09:00,
2013-03-30 12:14:00,72.3,47.4,30.28,SSW,197,0.0,12.9,41,0.00,,,0.00,WUHU216PEETBRO,2013-03-30 16:14:00,
2013-03-30 12:19:00,72.7,46.8,30.28,SSW,208,6.2,11.7,40,0.00,,,0.00,WUHU216PEETBRO,2013-03-30 16:19:00,
2013-03-30 12:24:00,72.7,47.3,30.28,SSE,149,11.1,11.7,41,0.00,,,0.00,WUHU216PEETBRO,2013-03-30 16:24:00,
2013-03-30 12:29:00,72.7,45.0,30.28,SSE,159,5.3,12.3,37,0.00,,,0.00,WUHU216PEETBRO,2013-03-30 16:29:00,
2013-03-30 12:34:00,73.0,46.4,30.28,ESE,117,5.0,12.3,39,0.00,,,0.00,WUHU216PEETBRO,2013-03-30 16:34:00,
2013-03-30 12:39:00,73.3,46.6,30.28,East,86,1.6,9.4,39,0.00,,,0.00,WUHU216PEETBRO,2013-03-30 16:39:00,
2013-03-30 12:44:00,73.0,45.5,30.28,SE,139,6.1,12.8,38,0.00,,,0.00,WUHU216PEETBRO,2013-03-30 16:44:00,
2013-03-30 12:49:00,73.2,47.0,30.28,SSE,163,0.0,12.8,40,0.00,,,0.00,WUHU216PEETBRO,2013-03-30 16:49:00,
2013-03-30 12:54:00,73.9,45.6,30.27,SSE,162,7.2,9.8,37,0.00,,,0.00,WUHU216PEETBRO,2013-03-30 16:54:00,
2013-03-30 12:59:00,74.2,45.8,30.27,SW,217,6.8,10.7,37,0.00,,,0.00,WUHU216PEETBRO,2013-03-30 16:59:00,
2013-03-30 13:04:00,74.4,46.4,30.27,SW,231,0.0,10.7,37,0.00,,,0.00,WUHU216PEETBRO,2013-03-30 17:04:00,
2013-03-30 13:09:00,74.8,45.8,30.27,SSW,199,5.7,8.5,36,0.00,,,0.00,WUHU216PEETBRO,2013-03-30 17:09:00,
2013-03-30 13:14:00,74.6,46.5,30.26,South,170,11.9,13.0,37,0.00,,,0.00,WUHU216PEETBRO,2013-03-30 17:14:00,
2013-03-30 13:19:00,74.7,46.3,30.26,SSW,210,0.0,13.0,37,0.00,,,0.00,WUHU216PEETBRO,2013-03-30 17:19:00,
2013-03-30 13:24:00,74.8,44.0,30.26,South,187,12.6,13.2,34,0.00,,,0.00,WUHU216PEETBRO,2013-03-30 17:24:00,
2013-03-30 13:29:00,74.5,43.9,30.26,SSW,196,0.0,13.2,34,0.00,,,0.00,WUHU216PEETBRO,2013-03-30 17:29:00,
2013-03-30 13:34:00,74.9,44.2,30.26,South,190,0.0,9.3,34,0.00,,,0.00,WUHU216PEETBRO,2013-03-30 17:34:00,
2013-03-30 13:39:00,75.1,43.6,30.25,South,173,0.0,8.8,33,0.00,,,0.00,WUHU216PEETBRO,2013-03-30 17:39:00,
2013-03-30 13:44:00,75.7,44.8,30.25,South,183,4.6,10.3,34,0.00,,,0.00,WUHU216PEETBRO,2013-03-30 17:44:00,
2013-03-30 13:49:00,76.0,44.7,30.25,South,172,7.8,13.5,33,0.00,,,0.00,WUHU216PEETBRO,2013-03-30 17:49:00,
2013-03-30 13:54:00,76.0,45.0,30.25,WSW,244,4.8,13.5,33,0.00,,,0.00,WUHU216PEETBRO,2013-03-30 17:54:00,
2013-03-30 13:59:00,76.2,42.6,30.24,SW,231,6.8,9.8,30,0.00,,,0.00,WUHU216PEETBRO,2013-03-30 17:59:00,
2013-03-30 14:04:00,75.6,44.8,30.24,SSE,152,3.2,9.6,34,0.00,,,0.00,WUHU216PEETBRO,2013-03-30 18:04:00,
2013-03-30 14:09:00,75.8,43.1,30.24,SW,221,8.4,9.4,31,0.00,,,0.00,WUHU216PEETBRO,2013-03-30 18:09:00,
2013-03-30 14:14:00,75.8,44.1,30.24,ESE,107,1.3,9.4,33,0.00,,,0.00,WUHU216PEETBRO,2013-03-30 18:14:00,
2013-03-30 14:19:00,76.2,42.8,30.24,SSE,165,2.1,8.7,31,0.00,,,0.00,WUHU216PEETBRO,2013-03-30 18:19:00,
2013-03-30 14:24:00,76.4,43.9,30.24,WSW,244,0.0,8.7,32,0.00,,,0.00,WUHU216PEETBRO,2013-03-30 18:24:00,
2013-03-30 14:29:00,76.3,43.2,30.23,WNW,292,8.2,12.1,31,0.00,,,0.00,WUHU216PEETBRO,2013-03-30 18:29:00,
2013-03-30 14:34:00,75.9,42.7,30.23,WSW,239,3.1,13.4,31,0.00,,,0.00,WUHU216PEETBRO,2013-03-30 18:34:00,
2013-03-30 14:39:00,76.5,41.8,30.23,SSE,166,5.8,13.4,29,0.00,,,0.00,WUHU216PEETBRO,2013-03-30 18:39:00,
2013-03-30 14:44:00,76.4,42.9,30.23,SW,225,9.2,9.7,31,0.00,,,0.00,WUHU216PEETBRO,2013-03-30 18:44:00,
2013-03-30 14:49:00,76.7,43.8,30.22,SW,230,6.5,14.7,31,0.00,,,0.00,WUHU216PEETBRO,2013-03-30 18:49:00,
2013-03-30 14:54:00,77.2,44.4,30.22,SSW,210,6.1,14.7,31,0.00,,,0.00,WUHU216PEETBRO,2013-03-30 18:54:00,
2013-03-30 14:59:00,77.2,43.2,30.22,SSE,149,0.0,9.0,30,0.00,,,0.00,WUHU216PEETBRO,2013-03-30 18:59:00,
2013-03-30 15:04:00,76.9,43.6,30.22,West,269,3.2,8.1,31,0.00,,,0.00,WUHU216PEETBRO,2013-03-30 19:04:00,
2013-03-30 15:09:00,77.1,44.1,30.21,SSW,211,0.0,4.3,31,0.00,,,0.00,WUHU216PEETBRO,2013-03-30 19:09:00,
2013-03-30 15:14:00,76.8,42.8,30.21,SW,220,0.0,11.6,30,0.00,,,0.00,WUHU216PEETBRO,2013-03-30 19:14:00,
2013-03-30 15:19:00,76.9,43.4,30.21,SSE,162,0.0,11.6,31,0.00,,,0.00,WUHU216PEETBRO,2013-03-30 19:19:00,
2013-03-30 15:24:00,77.1,43.4,30.21,South,189,5.5,10.9,30,0.00,,,0.00,WUHU216PEETBRO,2013-03-30 19:24:00,
2013-03-30 15:29:00,77.3,43.0,30.21,South,172,0.0,10.9,30,0.00,,,0.00,WUHU216PEETBRO,2013-03-30 19:29:00,
2013-03-30 15:34:00,76.9,41.9,30.20,South,172,6.0,10.8,29,0.00,,,0.00,WUHU216PEETBRO,2013-03-30 19:34:00,
2013-03-30 15:39:00,76.7,42.1,30.20,South,173,0.0,10.6,29,0.00,,,0.00,WUHU216PEETBRO,2013-03-30 19:39:00,
2013-03-30 15:44:00,76.6,41.4,30.20,SE,132,0.0,10.6,29,0.00,,,0.00,WUHU216PEETBRO,2013-03-30 19:44:00,
2013-03-30 15:49:00,77.1,41.3,30.20,SSW,194,5.7,14.7,28,0.00,,,0.00,WUHU216PEETBRO,2013-03-30 19:49:00,
2013-03-30 15:54:00,77.2,42.1,30.19,East,97,0.0,14.7,29,0.00,,,0.00,WUHU216PEETBRO,2013-03-30 19:54:00,
2013-03-30 15:59:00,77.3,41.7,30.19,SSW,197,5.3,9.9,28,0.00,,,0.00,WUHU216PEETBRO,2013-03-30 19:59:00,
2013-03-30 16:04:00,77.5,41.9,30.19,SSE,159,8.6,10.4,28,0.00,,,0.00,WUHU216PEETBRO,2013-03-30 20:04:00,
2013-03-30 16:09:00,76.9,41.3,30.19,SSE,158,0.0,10.4,28,0.00,,,0.00,WUHU216PEETBRO,2013-03-30 20:09:00,
2013-03-30 16:14:00,77.0,42.3,30.19,SW,223,5.5,8.3,29,0.00,,,0.00,WUHU216PEETBRO,2013-03-30 20:14:00,
2013-03-30 16:19:00,77.2,42.4,30.18,SW,218,7.8,12.9,29,0.00,,,0.00,WUHU216PEETBRO,2013-03-30 20:19:00,
2013-03-30 16:24:00,77.8,42.4,30.19,WSW,242,7.0,12.9,29,0.00,,,0.00,WUHU216PEETBRO,2013-03-30 20:24:00,
2013-03-30 16:29:00,77.4,42.9,30.18,SSW,196,0.0,10.6,30,0.00,,,0.00,WUHU216PEETBRO,2013-03-30 20:29:00,
2013-03-30 16:34:00,77.5,43.3,30.18,SSE,151,0.0,7.4,30,0.00,,,0.00,WUHU216PEETBRO,2013-03-30 20:34:00,
2013-03-30 16:39:00,77.5,43.4,30.18,SSW,201,3.5,8.1,30,0.00,,,0.00,WUHU216PEETBRO,2013-03-30 20:39:00,
2013-03-30 16:44:00,77.9,43.1,30.18,SSW,194,8.1,9.9,29,0.00,,,0.00,WUHU216PEETBRO,2013-03-30 20:44:00,
2013-03-30 16:49:00,77.9,43.4,30.18,SW,221,0.0,9.9,30,0.00,,,0.00,WUHU216PEETBRO,2013-03-30 20:49:00,
2013-03-30 16:54:00,77.8,43.6,30.18,WSW,252,5.6,8.1,30,0.00,,,0.00,WUHU216PEETBRO,2013-03-30 20:54:00,
2013-03-30 16:59:00,77.4,43.5,30.17,SSE,153,0.0,8.4,30,0.00,,,0.00,WUHU216PEETBRO,2013-03-30 20:59:00,
2013-03-30 17:04:00,77.1,43.5,30.17,SSE,151,0.0,8.4,31,0.00,,,0.00,WUHU216PEETBRO,2013-03-30 21:04:00,
2013-03-30 17:09:00,76.9,43.7,30.17,SSE,153,3.1,10.9,31,0.00,,,0.00,WUHU216PEETBRO,2013-03-30 21:09:00,
2013-03-30 17:14:00,76.7,43.6,30.17,SSW,210,6.6,10.9,31,0.00,,,0.00,WUHU216PEETBRO,2013-03-30 21:14:00,
2013-03-30 17:19:00,77.0,43.9,30.17,SE,142,0.0,9.8,31,0.00,,,0.00,WUHU216PEETBRO,2013-03-30 21:19:00,
2013-03-30 17:24:00,77.1,43.9,30.17,SSE,160,0.0,8.0,31,0.00,,,0.00,WUHU216PEETBRO,2013-03-30 21:24:00,
2013-03-30 17:29:00,77.0,43.7,30.17,South,170,7.3,7.9,31,0.00,,,0.00,WUHU216PEETBRO,2013-03-30 21:29:00,
2013-03-30 17:34:00,76.8,43.9,30.17,SSE,148,0.0,7.9,31,0.00,,,0.00,WUHU216PEETBRO,2013-03-30 21:34:00,
2013-03-30 17:39:00,76.4,43.9,30.17,South,172,4.7,7.3,32,0.00,,,0.00,WUHU216PEETBRO,2013-03-30 21:39:00,
2013-03-30 17:44:00,76.4,44.3,30.17,SSW,199,0.0,7.3,32,0.00,,,0.00,WUHU216PEETBRO,2013-03-30 21:44:00,
2013-03-30 17:49:00,76.4,44.0,30.17,East,93,0.0,6.6,32,0.00,,,0.00,WUHU216PEETBRO,2013-03-30 21:49:00,
2013-03-30 17:54:00,76.4,44.1,30.17,East,86,7.1,7.1,32,0.00,,,0.00,WUHU216PEETBRO,2013-03-30 21:54:00,
2013-03-30 17:59:00,76.2,44.1,30.17,East,83,5.7,7.8,32,0.00,,,0.00,WUHU216PEETBRO,2013-03-30 21:59:00,
2013-03-30 18:04:00,76.3,44.7,30.16,ESE,111,0.0,7.8,33,0.00,,,0.00,WUHU216PEETBRO,2013-03-30 22:04:00,
2013-03-30 18:09:00,76.6,44.3,30.16,SE,141,4.8,7.6,32,0.00,,,0.00,WUHU216PEETBRO,2013-03-30 22:09:00,
2013-03-30 18:14:00,76.7,43.9,30.16,SSE,149,5.3,9.6,31,0.00,,,0.00,WUHU216PEETBRO,2013-03-30 22:14:00,
2013-03-30 18:19:00,76.8,44.0,30.17,SSE,160,13.7,15.7,31,0.00,,,0.00,WUHU216PEETBRO,2013-03-30 22:19:00,
2013-03-30 18:25:00,76.6,44.4,30.17,SE,138,7.3,15.7,32,0.00,,,0.00,WUHU216PEETBRO,2013-03-30 22:25:00,
2013-03-30 18:29:00,76.3,44.3,30.17,SE,132,0.0,11.6,32,0.00,,,0.00,WUHU216PEETBRO,2013-03-30 22:29:00,
2013-03-30 18:35:00,76.4,44.4,30.17,SSE,159,6.3,10.9,32,0.00,,,0.00,WUHU216PEETBRO,2013-03-30 22:35:00,
2013-03-30 18:40:00,76.3,44.5,30.17,SE,124,0.0,8.3,33,0.00,,,0.00,WUHU216PEETBRO,2013-03-30 22:40:00,
2013-03-30 18:44:00,76.2,44.2,30.17,SSE,159,5.8,9.8,32,0.00,,,0.00,WUHU216PEETBRO,2013-03-30 22:44:00,
2013-03-30 18:49:00,76.1,44.3,30.17,SSE,165,5.6,10.3,32,0.00,,,0.00,WUHU216PEETBRO,2013-03-30 22:49:00,
2013-03-30 18:54:00,76.1,44.4,30.17,SSE,166,0.0,10.3,33,0.00,,,0.00,WUHU216PEETBRO,2013-03-30 22:54:00,
2013-03-30 18:59:00,75.9,44.6,30.17,East,80,5.8,10.8,33,0.00,,,0.00,WUHU216PEETBRO,2013-03-30 22:59:00,
2013-03-30 19:04:00,74.9,50.6,30.17,ESE,122,7.6,11.2,43,0.00,,,0.00,WUHU216PEETBRO,2013-03-30 23:04:00,
2013-03-30 19:09:00,73.8,51.3,30.18,SSE,151,4.9,11.7,45,0.00,,,0.00,WUHU216PEETBRO,2013-03-30 23:09:00,
2013-03-30 19:14:00,73.0,51.5,30.18,ESE,105,7.1,11.7,47,0.00,,,0.00,WUHU216PEETBRO,2013-03-30 23:14:00,
2013-03-30 19:19:00,72.4,51.3,30.18,SSE,163,5.0,13.2,48,0.00,,,0.00,WUHU216PEETBRO,2013-03-30 23:19:00,
2013-03-30 19:24:00,72.1,51.5,30.18,East,100,5.1,13.2,48,0.00,,,0.00,WUHU216PEETBRO,2013-03-30 23:24:00,
2013-03-30 19:29:00,71.9,51.6,30.18,SE,143,8.4,13.1,49,0.00,,,0.00,WUHU216PEETBRO,2013-03-30 23:29:00,
2013-03-30 19:34:00,71.7,51.8,30.18,ESE,107,5.5,13.1,49,0.00,,,0.00,WUHU216PEETBRO,2013-03-30 23:34:00,
2013-03-30 19:39:00,71.5,51.9,30.18,SSE,166,4.3,11.5,50,0.00,,,0.00,WUHU216PEETBRO,2013-03-30 23:39:00,
2013-03-30 19:44:00,71.2,51.7,30.19,SE,129,6.5,11.5,50,0.00,,,0.00,WUHU216PEETBRO,2013-03-30 23:44:00,
2013-03-30 19:49:00,70.7,52.2,30.19,SE,124,5.7,10.4,52,0.00,,,0.00,WUHU216PEETBRO,2013-03-30 23:49:00,
2013-03-30 19:54:00,70.5,52.3,30.19,ESE,104,0.0,10.4,52,0.00,,,0.00,WUHU216PEETBRO,2013-03-30 23:54:00,
2013-03-30 19:59:00,70.0,52.3,30.19,WNW,283,2.9,11.1,53,0.00,,,0.00,WUHU216PEETBRO,2013-03-30 23:59:00,
2013-03-30 20:04:00,69.7,52.6,30.19,SE,128,0.0,11.1,54,0.00,,,0.00,WUHU216PEETBRO,2013-03-31 00:04:00,
2013-03-30 20:09:00,69.4,52.5,30.19,East,97,7.0,9.9,55,0.00,,,0.00,WUHU216PEETBRO,2013-03-31 00:09:00,
2013-03-30 20:14:00,68.9,52.3,30.19,ESE,117,4.7,9.6,55,0.00,,,0.00,WUHU216PEETBRO,2013-03-31 00:14:00,
2013-03-30 20:19:00,68.6,52.5,30.19,South,186,5.5,10.6,56,0.00,,,0.00,WUHU216PEETBRO,2013-03-31 00:19:00,
2013-03-30 20:24:00,68.5,52.6,30.19,SE,132,9.4,10.6,57,0.00,,,0.00,WUHU216PEETBRO,2013-03-31 00:24:00,
2013-03-30 20:29:00,68.5,52.9,30.19,ESE,112,6.9,9.4,57,0.00,,,0.00,WUHU216PEETBRO,2013-03-31 00:29:00,
2013-03-30 20:34:00,68.1,52.8,30.19,ESE,121,2.7,8.1,58,0.00,,,0.00,WUHU216PEETBRO,2013-03-31 00:34:00,
2013-03-30 20:39:00,68.1,52.7,30.19,East,83,5.4,10.6,58,0.00,,,0.00,WUHU216PEETBRO,2013-03-31 00:39:00,
2013-03-30 20:44:00,67.9,52.5,30.20,SE,138,8.8,10.6,58,0.00,,,0.00,WUHU216PEETBRO,2013-03-31 00:44:00,
2013-03-30 20:49:00,67.8,52.5,30.20,East,90,4.3,9.7,58,0.00,,,0.00,WUHU216PEETBRO,2013-03-31 00:49:00,
2013-03-30 20:54:00,67.8,52.6,30.20,SE,145,4.9,9.7,58,0.00,,,0.00,WUHU216PEETBRO,2013-03-31 00:54:00,
2013-03-30 21:00:00,67.4,52.4,30.20,ENE,66,4.8,9.7,58,0.00,,,0.00,WUHU216PEETBRO,2013-03-31 01:00:00,
2013-03-30 21:05:00,67.3,52.4,30.20,ENE,64,0.0,9.0,58,0.00,,,0.00,WUHU216PEETBRO,2013-03-31 01:05:00,
2013-03-30 21:10:00,67.2,52.4,30.20,SSE,152,3.4,8.7,59,0.00,,,0.00,WUHU216PEETBRO,2013-03-31 01:10:00,
2013-03-30 21:15:00,67.0,52.4,30.21,ESE,104,0.0,8.0,59,0.00,,,0.00,WUHU216PEETBRO,2013-03-31 01:15:00,
2013-03-30 21:20:00,66.9,52.4,30.21,NE,50,0.0,6.4,59,0.00,,,0.00,WUHU216PEETBRO,2013-03-31 01:20:00,
2013-03-30 21:25:00,66.9,52.4,30.22,SW,220,0.0,7.1,59,0.00,,,0.00,WUHU216PEETBRO,2013-03-31 01:25:00,
2013-03-30 21:30:00,67.0,52.6,30.23,SW,224,0.0,7.1,60,0.00,,,0.00,WUHU216PEETBRO,2013-03-31 01:30:00,
2013-03-30 21:35:00,66.9,52.5,30.23,WSW,249,6.6,8.6,60,0.00,,,0.00,WUHU216PEETBRO,2013-03-31 01:35:00,
2013-03-30 21:40:00,67.0,52.4,30.23,SW,227,0.0,8.6,59,0.00,,,0.00,WUHU216PEETBRO,2013-03-31 01:40:00,
2013-03-30 21:45:00,67.0,52.3,30.23,South,180,6.5,10.0,59,0.00,,,0.00,WUHU216PEETBRO,2013-03-31 01:45:00,
2013-03-30 21:50:00,67.4,52.4,30.23,South,182,0.0,10.0,58,0.00,,,0.00,WUHU216PEETBRO,2013-03-31 01:50:00,
2013-03-30 21:55:00,67.4,52.4,30.23,South,170,0.0,8.9,58,0.00,,,0.00,WUHU216PEETBRO,2013-03-31 01:55:00,
2013-03-30 22:00:00,67.3,52.4,30.23,SW,225,3.4,7.3,59,0.00,,,0.00,WUHU216PEETBRO,2013-03-31 02:00:00,
2013-03-30 22:05:00,67.2,52.4,30.24,SSE,166,5.1,7.3,59,0.00,,,0.00,WUHU216PEETBRO,2013-03-31 02:05:00,
2013-03-30 22:10:00,67.1,52.2,30.24,South,190,6.5,8.2,59,0.00,,,0.00,WUHU216PEETBRO,2013-03-31 02:10:00,
2013-03-30 22:15:00,67.1,52.1,30.24,SSE,153,5.8,8.5,58,0.00,,,0.00,WUHU216PEETBRO,2013-03-31 02:15:00,
2013-03-30 22:20:00,67.1,52.1,30.24,SE,146,0.0,8.6,58,0.00,,,0.00,WUHU216PEETBRO,2013-03-31 02:20:00,
2013-03-30 22:25:00,67.2,52.2,30.24,SE,138,0.0,8.6,58,0.00,,,0.00,WUHU216PEETBRO,2013-03-31 02:25:00,
2013-03-30 22:30:00,67.0,52.2,30.24,SSE,148,0.0,6.6,59,0.00,,,0.00,WUHU216PEETBRO,2013-03-31 02:30:00,
2013-03-30 22:35:00,66.9,52.3,30.24,SE,132,0.0,7.1,59,0.00,,,0.00,WUHU216PEETBRO,2013-03-31 02:35:00,
2013-03-30 22:40:00,66.8,52.4,30.24,SE,132,0.0,7.1,60,0.00,,,0.00,WUHU216PEETBRO,2013-03-31 02:40:00,
2013-03-30 22:45:00,66.6,52.4,30.24,SSE,162,3.2,6.2,60,0.00,,,0.00,WUHU216PEETBRO,2013-03-31 02:45:00,
2013-03-30 22:50:00,66.5,52.4,30.24,SE,138,0.0,6.2,60,0.00,,,0.00,WUHU216PEETBRO,2013-03-31 02:50:00,
2013-03-30 22:55:00,66.4,52.3,30.24,SE,143,0.0,5.9,60,0.00,,,0.00,WUHU216PEETBRO,2013-03-31 02:55:00,
2013-03-30 23:00:00,66.3,52.3,30.24,SSE,163,4.5,7.5,60,0.00,,,0.00,WUHU216PEETBRO,2013-03-31 03:00:00,
2013-03-30 23:05:00,66.3,52.5,30.24,East,83,2.7,7.5,61,0.00,,,0.00,WUHU216PEETBRO,2013-03-31 03:05:00,
2013-03-30 23:10:00,66.3,52.6,30.24,SSE,148,6.6,7.3,61,0.00,,,0.00,WUHU216PEETBRO,2013-03-31 03:10:00,
2013-03-30 23:15:00,66.3,52.6,30.24,SSE,160,7.7,8.2,61,0.00,,,0.00,WUHU216PEETBRO,2013-03-31 03:15:00,
2013-03-30 23:20:00,66.2,52.6,30.23,SE,136,4.8,8.8,61,0.00,,,0.00,WUHU216PEETBRO,2013-03-31 03:20:00,
2013-03-30 23:25:00,66.1,52.7,30.24,ESE,111,0.0,8.8,62,0.00,,,0.00,WUHU216PEETBRO,2013-03-31 03:25:00,
2013-03-30 23:30:00,66.0,52.7,30.23,SSE,165,4.9,8.3,62,0.00,,,0.00,WUHU216PEETBRO,2013-03-31 03:30:00,
2013-03-30 23:35:00,66.0,52.9,30.23,ESE,114,0.0,9.0,62,0.00,,,0.00,WUHU216PEETBRO,2013-03-31 03:35:00,
2013-03-30 23:40:00,65.8,52.8,30.23,ESE,117,4.7,9.0,63,0.00,,,0.00,WUHU216PEETBRO,2013-03-31 03:40:00,
2013-03-30 23:45:00,65.8,53.1,30.23,East,101,5.2,8.3,63,0.00,,,0.00,WUHU216PEETBRO,2013-03-31 03:45:00,
2013-03-30 23:50:00,65.7,53.2,30.23,SSE,156,0.0,8.2,64,0.00,,,0.00,WUHU216PEETBRO,2013-03-31 03:50:00,
2013-03-30 23:55:00,65.6,53.2,30.23,SSE,162,0.0,6.5,64,0.00,,,0.00,WUHU216PEETBRO,2013-03-31 03:55:00,